Wind_Speed
15 15 15 14 13 13 13 13 14 15 16 15 14 14 12 11 10 7 10 10 11 9 9 10 11 11 12 11 8 7 8 6 4
17 16 16 17 17 17 16 15 14 14 14 16 16 13 14 14 10 11 12 12 12 9 9 9 8 7 8 8 9 9 9 8 8
20 20 20 20 20 20 20 19 18 16 16 16 16 15 14 15 15 14 15 15 15 12 10 9 11 8 6 5 7 10 12 11 12
21 21 22 22 23 23 22 22 22 21 19 18 18 17 16 17 17 17 18 18 15 14 13 12 11 12 14 11 8 7 11 15 16
19 20 21 22 23 24 24 25 25 24 23 21 19 19 19 19 19 20 20 18 21 16 15 14 14 14 13 16 16 13 10 12 16
20 21 21 22 23 23 24 24 25 26 25 24 23 21 19 17 19 21 21 23 22 19 17 16 16 16 15 16 17 19 17 14 13
20 20 21 21 21 21 22 22 22 23 22 15 20 21 17 14 16 18 20 21 22 20 20 19 19 19 19 19 20 20 21 21 18
16 16 15 20 19 17 18 18 13 13 15 16 16 15 15 15 16 18 24 24 22 22 23 23 22 22 22 22 22 23 23 23 23
14 16 18 18 18 20 18 17 14 14 14 14 15 16 16 15 16 15 21 25 23 24 24 24 24 24 20 20 21 22 23 25 24
17 17 19 17 17 17 18 17 16 15 13 13 13 13 14 16 17 17 20 24 25 23 24 25 26 26 25 25 23 21 20 22 24
18 17 18 20 16 16 16 15 17 17 14 13 13 12 13 13 15 17 17 22 25 25 26 26 27 27 26 25 24 23 22 21 20
17 18 19 19 17 17 15 14 14 15 14 13 12 11 12 12 12 13 13 14 19 21 24 26 27 28 28 26 25 24 23 22 21
18 18 18 18 18 15 15 14 14 13 12 11 11 10 11 11 11 11 12 14 14 16 17 21 25 26 27 27 26 25 24 24 24
18 17 17 16 18 14 15 14 13 13 11 10 11 9 10 11 10 11 12 13 16 15 13 17 18 20 22 24 25 25 25 26 26
17 16 16 16 15 13 13 14 13 12 11 11 10 7 9 9 8 6 7 8 10 7 9 9 9 11 14 16 19 20 22 23 24
17 16 16 15 14 13 13 13 13 10 10 9 5 5 4 1 1 1 3 3 2 3 3 4 5 7 9 12 14 14 15 16 18
16 15 16 15 14 12 11 10 12 8 8 7 3 3 3 3 3 4 3 3 4 4 5 6 8 10 11 13 14 15 16 16 17
16 15 15 14 13 12 12 10 9 9 6 10 2 4 3 6 7 5 5 5 5 7 8 9 11 12 12 15 15 16 16 17 18
15 15 15 14 13 11 10 9 9 8 7 6 3 5 5 4 5 4 6 7 7 9 11 11 12 13 13 14 15 17 16 16 16
15 15 14 14 14 12 12 10 7 7 10 5 6 4 4 6 5 10 6 8 11 12 12 12 12 12 15 13 15 16 16 17 17
Wind_Direction
308 303 297 290 284 286 293 296 291 285 280 278 276 269 272 269 265 242 241 248 236 240 234 242 249 251 254 260 252 237 240 245 264
300 298 296 291 288 284 281 279 281 285 287 282 277 275 267 268 257 249 245 252 243 237 233 232 233 234 236 247 248 238 236 237 248
300 298 294 291 288 284 282 279 275 271 271 274 275 273 270 265 254 228 247 248 246 239 235 232 230 233 239 248 243 239 242 244 243
298 296 292 292 290 286 282 278 276 274 269 263 265 266 265 262 258 244 234 250 254 244 240 239 236 235 249 251 250 249 247 246 248
310 304 303 297 292 288 284 281 276 272 271 269 263 261 260 263 261 254 243 238 251 248 244 243 244 243 239 251 252 252 256 256 250
320 314 311 306 301 294 288 282 278 275 270 268 266 261 259 262 270 263 250 245 249 249 248 247 249 254 254 251 255 255 255 259 260
317 316 315 311 308 302 295 288 283 278 277 272 273 264 261 254 250 268 273 251 247 252 254 255 254 254 256 256 256 257 256 256 257
323 318 313 315 317 312 302 298 296 284 271 264 261 260 253 246 248 255 252 254 251 255 257 257 261 261 260 259 260 260 259 258 257
323 321 315 316 314 308 307 300 292 289 285 275 267 261 255 252 251 247 259 262 257 254 257 258 261 262 264 262 260 259 262 259 258
325 326 325 317 315 310 304 301 295 288 283 277 271 269 264 254 248 246 253 258 261 255 253 256 258 259 260 261 261 263 263 260 258
325 328 320 314 311 311 305 302 298 294 287 278 273 268 268 266 254 244 245 261 266 260 255 254 254 256 257 260 260 260 263 261 260
329 327 321 315 314 312 308 307 301 297 288 284 280 271 264 258 263 266 255 253 269 268 257 255 255 256 257 258 258 258 258 260 260
327 326 324 322 322 318 313 311 309 299 294 287 280 271 266 262 258 255 260 264 259 266 273 258 256 257 258 259 261 262 262 261 259
325 327 326 323 327 324 318 317 315 310 306 295 288 280 270 261 260 258 258 263 266 263 261 274 265 261 260 260 260 259 260 260 261
328 329 329 326 329 329 315 318 319 314 310 303 292 284 270 271 270 255 276 262 265 274 266 275 288 269 262 261 260 262 262 262 261
330 329 330 327 325 324 326 325 327 329 312 338 322 294 300 298 302 334 265 274 242 233 230 237 217 297 281 265 263 263 263 263 262
329 327 327 326 324 324 324 328 327 331 330 323 328 280 261 274 261 216 215 246 262 272 264 254 260 255 261 268 275 268 266 265 264
320 323 325 323 324 327 326 325 333 325 350 323 348 324 347 332 251 243 249 267 280 284 284 285 275 276 270 270 272 269 266 264 262
315 320 323 322 322 322 323 323 321 324 312 321 320 293 294 324 321 275 269 276 289 289 290 280 278 285 277 272 270 270 270 266 264
315 320 323 324 322 320 318 322 315 309 314 277 295 280 261 273 291 298 285 278 296 283 290 283 282 273 276 269 272 270 268 269 269
Height
1524 1523 1522 1522 1520 1520 1520 1519 1519 1519 1520 1519 1519 1518 1519 1518 1518 1519 1521 1520 1520 1520 1520 1521 1521 1521 1522 1523 1523 1524 1525 1525 1526
1521 1521 1520 1519 1518 1518 1517 1516 1516 1516 1517 1516 1516 1516 1516 1516 1516 1519 1519 1518 1517 1518 1518 1519 1519 1520 1520 1521 1522 1523 1523 1524 1525
1518 1518 1517 1516 1516 1515 1514 1513 1512 1512 1513 1513 1513 1513 1513 1513 1514 1516 1517 1516 1515 1516 1516 1516 1517 1518 1519 1520 1520 1521 1522 1523 1523
1515 1514 1512 1512 1512 1511 1510 1510 1509 1509 1508 1509 1509 1509 1509 1509 1510 1511 1512 1513 1513 1514 1514 1515 1515 1516 1517 1518 1519 1519 1520 1521 1522
1511 1510 1509 1508 1507 1506 1506 1505 1505 1504 1504 1504 1504 1505 1505 1506 1506 1506 1508 1508 1510 1511 1511 1512 1513 1513 1514 1515 1516 1517 1518 1518 1519
1509 1507 1506 1504 1503 1502 1501 1500 1500 1499 1499 1499 1500 1500 1501 1502 1502 1502 1503 1505 1505 1507 1508 1508 1510 1510 1512 1512 1513 1514 1515 1516 1517
1507 1504 1502 1500 1499 1498 1496 1495 1494 1494 1494 1495 1494 1495 1497 1499 1501 1499 1499 1500 1501 1502 1503 1505 1506 1507 1508 1509 1510 1511 1512 1513 1514
1505 1502 1500 1498 1496 1494 1493 1491 1491 1490 1489 1489 1490 1491 1493 1494 1495 1496 1495 1496 1497 1498 1499 1500 1502 1502 1504 1505 1506 1506 1507 1508 1509
1503 1501 1498 1496 1494 1491 1490 1488 1487 1486 1486 1485 1485 1486 1488 1489 1490 1491 1490 1490 1491 1493 1495 1495 1497 1498 1499 1500 1501 1502 1503 1504 1505
1500 1498 1496 1494 1491 1489 1486 1484 1483 1482 1482 1482 1481 1481 1482 1483 1485 1485 1485 1484 1486 1487 1488 1490 1491 1493 1494 1495 1496 1497 1498 1498 1500
1497 1495 1494 1492 1489 1487 1484 1481 1479 1478 1478 1477 1478 1477 1478 1478 1479 1479 1481 1480 1479 1481 1482 1484 1486 1487 1488 1489 1491 1492 1493 1494 1495
1495 1493 1491 1489 1486 1484 1481 1478 1476 1475 1474 1473 1474 1474 1474 1474 1476 1475 1476 1476 1475 1475 1476 1478 1479 1481 1482 1484 1485 1487 1488 1489 1490
1493 1491 1489 1486 1483 1481 1480 1476 1473 1472 1471 1470 1471 1470 1470 1470 1472 1472 1472 1472 1472 1471 1471 1472 1474 1475 1477 1478 1480 1481 1482 1483 1485
1491 1488 1486 1484 1481 1479 1478 1475 1473 1470 1469 1468 1467 1466 1466 1466 1466 1467 1468 1467 1467 1468 1468 1468 1469 1470 1471 1473 1474 1475 1476 1477 1478
1489 1487 1484 1482 1479 1478 1477 1475 1472 1470 1468 1466 1465 1464 1463 1462 1463 1464 1464 1464 1464 1464 1465 1465 1465 1466 1467 1468 1469 1470 1471 1472 1473
1487 1485 1483 1480 1478 1476 1475 1473 1471 1470 1468 1465 1465 1463 1462 1462 1462 1463 1462 1461 1462 1463 1463 1464 1465 1464 1464 1465 1465 1466 1467 1467 1468
1485 1484 1482 1479 1477 1475 1473 1471 1470 1470 1468 1465 1463 1464 1463 1462 1461 1462 1462 1462 1461 1462 1461 1462 1462 1462 1463 1462 1462 1462 1463 1463 1464
1484 1482 1480 1477 1475 1473 1472 1470 1469 1468 1467 1466 1466 1465 1463 1462 1461 1461 1461 1461 1461 1461 1459 1459 1459 1459 1459 1459 1458 1458 1459 1459 1460
1481 1480 1478 1476 1474 1472 1470 1469 1467 1466 1464 1465 1465 1465 1466 1465 1463 1461 1460 1460 1460 1459 1458 1457 1456 1455 1455 1454 1454 1454 1455 1455 1455
1479 1478 1476 1475 1473 1471 1469 1468 1466 1466 1464 1463 1462 1463 1464 1465 1464 1462 1461 1460 1459 1458 1456 1455 1454 1453 1451 1451 1449 1450 1450 1450 1450